sat.trackr.live / text

‹ back to catalog

STARLINK-5028

NORAD 53886 · 2022-119A

PAYLOAD ACTIVE UNKNOWN

§ Identity

Operator
Country
US
Launch date
2022-09-24
Launch site
AFETR
Launch vehicle
Mass (kg)
RCS (m²)

Purposes: comms

External: N2YO · Heavens-Above · Gunter

§ Orbital elements

Epoch: 2026-05-24T22:44:11.611104Z

Period
95.44 min
Inclination
53.2169°
Eccentricity
0.0001076
Mean motion
15.08863527 rev/d
Perigee alt
538.9 km
Apogee alt
540.4 km
Semi-major
6,917.8 km
B*
2.2375e-4
RAAN
342.0145°
Arg perigee
55.7913°
Mean anomaly
304.3181°
Rev number
20,319

§ Raw data

STARLINK-50281 53886U 22119A   26144.94735661  .00003277  00000+0  22375-3 0  99932 53886  53.2169 342.0145 0001076  55.7913 304.3181 15.08863527203191

JSON: /api/v1/satellites/53886 · /tle

For live sub-satellite position, see the globe view (requires WebGL).

§ Visibility from observer

Set your observer location to see the next 7 days of passes ≥ 10°. The values pass through the URL so the page stays shareable.

No JS? Fill the form by hand. The geolocation button needs JavaScript.